1998-067PK (43598 NORAD) Tracking and Keplerian Element Data

This shows tracking and keplerian element data for the satellite.

Feedback or suggestion? Click here.




ElementValue
Catalog43598
Name1998-067PK
Epoch Orbit1400
Epoch Day317.71446027
Epoch Year2018
RAAN352.695
Inclination51.6389
Eccentricity0.0004819
Argument of Perigee30.5436
Mean Anonmoly329.5836
Mean Motion15.56271344
Decay Rate0.00011743
L11 43598U 98067PK 18317.71446027 .00011743 00000-0 17053-3 0 9995
L22 43598 51.6389 352.6950 0004819 30.5436 329.5836 15.56271344 14005

Live tracking and technical data element details for 1998-067PK (NORAD 43598). 1998-067PK can be tracked NOW for your location showing map with azimuth and elevation plus other details from your city location.

Track the satellite on the map from your city or location and see movement details for azimuth, elevation, latitude, longitude, range, height, and movement on the map or in text.







IsCatalogInMostPopularTable: catalog: 43598, numindb: 43
Update: records affected: 1



GetName: 43598 1998-067PK

Hit Count: updated at: Fri, 16 Nov 2018 02:54:13 GMT